Regional Weather Roundup
Issued by NWS

Home | Current Version | Previous Version | Graphics & Text | Print | Product List | Glossary On
Versions: 1 2 3 4 5 6 7 8 9 10 11 12 13 14 15 16 17 18 19 20 21 22 23 24 25 26 27 28 29 30 31 32 33 34 35 36 37 38 39 40 41 42 43 44 45 46 47 48 49 50
299
ASUS43 KMPX 201510
RWRMN
WEATHER ROUNDUP FOR MINNESOTA
NATIONAL WEATHER SERVICE TWIN CITIES/CHANHASSEN MN
1000 AM CDT WED SEP 20 2017


NOTE: "FAIR" INDICATES FEW OR NO CLOUDS BELOW 12,000 FEET WITH NO
SIGNIFICANT WEATHER AND/OR OBSTRUCTIONS TO VISIBILITY. N/A MEANS
CURRENT SKY AND/OR WEATHER CONDITIONS ARE NOT AVAILABLE.

MNZ060>063-068>070-201600-
   Twin Cities Metro

CITY           SKY/WX    TMP DP  RH WIND       PRES   REMARKS
TWIN CITIES    PTSUNNY   69  63  81 W9        29.71R
ST PAUL        CLOUDY    70  64  81 SW8       29.71R
CRYSTAL        PTSUNNY   68  59  73 W15       29.71R
BLAINE         CLOUDY    70  64  83 W10       29.71R
LAKEVILLE      MOSUNNY   68  63  83 W7        29.73R
EDEN PRAIRIE   SUNNY     69  60  73 W10       29.71R
SOUTH ST PAUL  CLOUDY    69  64  85 W8        29.70R
LAKE ELMO      CLOUDY    70  64  83 SW9G18    29.71R
$$
MNZ001>005-007-008-013>017-022>024-027-028-201600-
   Northwest Minnesota

CITY           SKY/WX    TMP DP  RH WIND       PRES   REMARKS
BEMIDJI        CLOUDY    56  52  84 W13       29.68R
HALLOCK        CLOUDY    57  50  77 W15       29.62R
ROSEAU         SUNNY     55  52  88 W10       29.61R
WARROAD        MOSUNNY   57  54  88 W14G21    29.61R
THIEF RVR FALL MOSUNNY   57  50  77 W14       29.68R
CROOKSTON      SUNNY     55  50  82 W10       29.69R
FOSSTON        PTSUNNY   55  52  88 W9        29.70R
DETROIT LAKES  SUNNY     55  48  76 W14       29.74R
MOORHEAD       SUNNY     57  46  67 W10       29.73R
PARK RAPIDS    SUNNY     59  51  75 W15       29.71R
MAHNOMEN       FAIR      56  50  80 W15       29.71R
$$
MNZ006-009>011-018-025>026-201600-
   North Central Minnesota

CITY           SKY/WX    TMP DP  RH WIND       PRES   REMARKS
BAUDETTE       CLOUDY    59  56  89 W10       29.61S
FLAG ISLAND    PTSUNNY   55  54  94 SW9       29.58R
INTL FALLS     LGT RAIN  62  59  90 W8        29.61R
WASKISH        CLOUDY    57  55  94 W15       29.65R
BIG FORK       CLOUDY    63  59  88 SW6       29.65R
LONGVILLE      MOSUNNY   63  57  82 W8        29.68R
GRAND RAPIDS   CLOUDY    62  60  93 W9        29.68R
CRANE LAKE     LGT RAIN  61  61 100 S6        29.61F
ORR            CLOUDY    61  59  94 SW7G16    29.60S
COOK           CLOUDY    63  61  94 S10       29.63S
WALKER         CLOUDY    58  53  84 W12       29.69R
$$
MNZ012-019>021-037-201600-
   Northeast Minnesota

CITY           SKY/WX    TMP DP  RH WIND       PRES   REMARKS
DULUTH         CLOUDY    63  63 100 S12       29.65F FOG
ELY            CLOUDY    63  61  94 S13G20    29.64F
HIBBING        LGT RAIN  62  62 100 S10G16    29.62F FOG
EVELETH        LGT RAIN  63  62  96 S9        29.64F
DULUTH HARBOR  CLOUDY    64  63  94 CALM      29.65R
TWO HARBORS    CLOUDY    64  61  88 CALM      29.65F
SILVER BAY     CLOUDY    63  63 100 SE6       29.65F
GRAND MARAIS     N/A     61  59  93 NE8       29.71F
G MARAIS ARPRT   N/A     55  54  94 SE10G17   29.74  FOG
$$
MNZ029>031-032-039>041-046>048-054>057-064-201600-
   West Central Minnesota

CITY           SKY/WX    TMP DP  RH WIND       PRES   REMARKS
FERGUS FALLS   SUNNY     57  48  72 W14       29.75R
WHEATON        SUNNY     61  45  55 W12       29.78R
MORRIS         SUNNY     61  50  67 NW13      29.76R
ALEXANDRIA     SUNNY     59  51  75 NW12G20   29.76R
ELBOW LAKE     FAIR      57  49  74 NW12      29.76R
WADENA         SUNNY     57  48  72 W7        29.73R
GLENWOOD       SUNNY     59  52  77 W14G21    29.76R
APPLETON       SUNNY     63  50  63 W10       29.77R
BENSON         SUNNY     63  50  63 N15       29.78R
ORTONVILLE     SUNNY     59  48  67 W8        29.78R
MADISON        SUNNY     61  52  72 W12       29.79R
WILLMAR        FAIR      63  55  77 NW14      29.77R
$$
MNZ033>034-036-042>043-049>051-058-059-201600-
   Central Minnesota

CITY           SKY/WX    TMP DP  RH WIND       PRES   REMARKS
ST CLOUD       CLOUDY    63  58  83 W13       29.72R
SAUK CENTRE    FAIR      59  51  74 W13G20    29.75R
PAYNESVILLE    MOSUNNY   62  55  79 NW9G18    29.75R
AITKIN         CLOUDY    61  59  94 W8        29.67R
PINE RIVER     MOSUNNY   59  54  82 W6G16     29.73R
BRAINERD       PTSUNNY   62  57  83 W9        29.70R
STAPLES        SUNNY     59  48  67 W13G21    29.73R
LONG PRAIRIE   FAIR      59  52  77 SW14G20   29.75R
LITTLE FALLS   CLOUDY    61  52  72 W9        29.72R
LITCHFIELD     SUNNY     64  59  82 W13       29.75R
BUFFALO        MOSUNNY   65  58  77 W14G21    29.74R
MAPLE LAKE     PTSUNNY   64  59  83 W10G18    29.74R
HUTCHINSON     SUNNY     64  57  79 W16G23    29.76R
$$
MNZ037-044-045-052-053-201600-
   East Central Minnesota

CITY           SKY/WX    TMP DP  RH WIND       PRES   REMARKS
PRINCETON      MOSUNNY   66  63  88 W7        29.71R
MORA           CLOUDY    61  61 100 W8G16     29.71R
CAMBRIDGE      CLOUDY    66  63  88 W8        29.71R
RUSH CITY      CLOUDY    66  62  86 SW6       29.68R
MOOSE LAKE     CLOUDY    68  64  88 S6        29.63S
HINCKLEY       CLOUDY    66  64  94 SW12      29.66R
CLOQUET        CLOUDY    63  61  94 SE3       29.65S FOG
MCGREGOR       CLOUDY    63  61  94 W8G16     29.68R
$$
MNZ071>073-080-081-089-090-097-098-201600-
   Southwest Minnesota

CITY           SKY/WX    TMP DP  RH WIND       PRES   REMARKS
MONTEVIDEO     SUNNY     63  63 100 NW10G18   29.78R
GRANITE FALLS  SUNNY     62  53  73 W13G21    29.80R
CANBY          SUNNY     60  50  69 NW10      29.80R
MARSHALL       SUNNY     61  50  67 NW15      29.80R
REDWOOD FALLS  MOSUNNY   63  54  72 NW14G20   29.76R
OLIVIA         MOSUNNY   61  54  77 NW10G17   29.76R
PIPESTONE      SUNNY     57  48  72 NW12G18   29.82R
WINDOM         SUNNY     63  54  72 NW13G18   29.79R
WORTHINGTON    SUNNY     60  52  74 NW16      29.81R
JACKSON        SUNNY     63  54  72 NW15      29.79R
TRACY          SUNNY     61  55  79 NW10G17   29.81R
SLAYTON        SUNNY     58  51  77 W16       29.81R
$$
MNZ065>067-074>077-082>085-091>093-201600-
   South Central Minnesota

CITY           SKY/WX    TMP DP  RH WIND       PRES   REMARKS
MANKATO        SUNNY     66  57  72 NW13      29.76R
NEW ULM        SUNNY     64  55  72 NW18      29.76R
ST JAMES       SUNNY     64  55  72 W13G20    29.78R
FAIRMONT       SUNNY     66  56  70 NW10      29.77R
GLENCOE        SUNNY     66  60  81 W13G20    29.74R
FARIBAULT      CLOUDY    68  61  77 W12       29.74R
OWATONNA       CLOUDY    70  63  78 W9        29.75R
WASECA         SUNNY     68  55  64 W9        29.76R
ALBERT LEA     CLOUDY    73  66  78 W8G18     29.74R
$$
MNZ078>079-086>088-094>096-201600-
   Southeast Minnesota

CITY           SKY/WX    TMP DP  RH WIND       PRES   REMARKS
ROCHESTER      CLOUDY    75  68  78 S12       29.74R
RED WING       CLOUDY    75  64  69 S7        29.69S
STANTON        CLOUDY    70  64  80 W12       29.71R
DODGE CENTER   MOSUNNY   73  66  78 S14       29.73S
WINONA         MOSUNNY   77  64  65 S7        29.72S
AUSTIN         CLOUDY    73  66  78 S10       29.74R
PRESTON        CLOUDY    73  65  78 S16       29.75S
$$
ABBREVIATIONS USED IN REMARKS
   TC - TEMPERATURES IN CELSIUS
  WCI - WIND CHILL INDEX
   HX - HEAT INDEX
  VSB - VISIBILITY
$$




USA.gov is the U.S. government's official web portal to all federal, state and local government web resources and services.